Time,TemperatureF,DewpointF,PressureIn,WindDirection,WindDirectionDegrees,WindSpeedMPH,WindSpeedGustMPH,Humidity,HourlyPrecipIn,Conditions,Clouds,dailyrainin,SolarRadiationWatts/m^2,SoftwareType,DateUTC
2013-07-04 00:02:00,51.0,40.0,-100.00,NNE,16,5.0,13.0,65,0.00,,,0.00,0.000000,,2013-07-04 07:02:00,
2013-07-04 01:10:00,51.0,45.0,-100.00,NNE,16,5.0,13.0,81,0.00,,,0.00,0.000000,,2013-07-04 08:10:00,
2013-07-04 01:42:00,51.0,45.0,-100.00,NNE,16,5.0,13.0,81,0.00,,,0.00,0.000000,,2013-07-04 08:42:00,
2013-07-04 01:53:00,51.0,45.0,-100.00,NNE,16,5.0,13.0,81,0.00,,,0.00,0.000000,,2013-07-04 08:53:00,
2013-07-04 02:02:00,51.0,45.0,-100.00,NNE,16,5.0,13.0,81,0.00,,,0.00,0.000000,,2013-07-04 09:02:00,
2013-07-04 03:10:00,49.0,46.0,-100.00,North,6,4.0,10.0,90,-99.99,,,0.00,0.000000,,2013-07-04 10:10:00,
2013-07-04 03:43:00,49.0,46.0,-100.00,North,6,4.0,10.0,90,-99.99,,,0.00,0.000000,,2013-07-04 10:43:00,
2013-07-04 03:53:00,49.0,46.0,-100.00,North,6,4.0,10.0,90,-99.99,,,0.00,0.000000,,2013-07-04 10:53:00,
2013-07-04 04:02:00,49.0,46.0,-100.00,North,6,4.0,10.0,90,-99.99,,,0.00,0.000000,,2013-07-04 11:02:00,
2013-07-04 04:10:00,47.0,45.0,-100.00,North,10,3.0,11.0,94,0.00,,,0.00,0.000000,,2013-07-04 11:10:00,
2013-07-04 04:43:00,47.0,45.0,-100.00,North,10,3.0,11.0,94,0.00,,,0.00,0.000000,,2013-07-04 11:43:00,
2013-07-04 04:53:00,47.0,45.0,-100.00,North,10,3.0,11.0,94,0.00,,,0.00,0.000000,,2013-07-04 11:53:00,
2013-07-04 05:01:00,47.0,45.0,-100.00,North,10,3.0,11.0,94,0.00,,,0.00,0.000000,,2013-07-04 12:01:00,
2013-07-04 05:10:00,48.0,46.0,-100.00,NNE,16,5.0,14.0,93,0.00,,,0.00,0.000000,,2013-07-04 12:10:00,
2013-07-04 05:43:00,48.0,46.0,-100.00,NNE,16,5.0,14.0,93,0.00,,,0.00,0.000000,,2013-07-04 12:43:00,
2013-07-04 05:52:00,48.0,46.0,-100.00,NNE,16,5.0,14.0,93,0.00,,,0.00,0.000000,,2013-07-04 12:52:00,
2013-07-04 06:02:00,48.0,46.0,-100.00,NNE,16,5.0,14.0,93,0.00,,,0.00,0.000000,,2013-07-04 13:02:00,
2013-07-04 06:10:00,48.0,47.0,-100.00,North,9,4.0,11.0,97,0.00,,,0.00,3.000000,,2013-07-04 13:10:00,
2013-07-04 06:43:00,48.0,47.0,-100.00,North,9,4.0,11.0,97,0.00,,,0.00,3.000000,,2013-07-04 13:43:00,
2013-07-04 06:53:00,48.0,47.0,-100.00,North,9,4.0,11.0,97,0.00,,,0.00,3.000000,,2013-07-04 13:53:00,
2013-07-04 07:02:00,48.0,47.0,-100.00,North,9,4.0,11.0,97,0.00,,,0.00,3.000000,,2013-07-04 14:02:00,
2013-07-04 07:10:00,50.0,47.0,-100.00,North,2,5.0,17.0,90,0.00,,,0.00,31.000000,,2013-07-04 14:10:00,
2013-07-04 07:43:00,50.0,47.0,-100.00,North,2,5.0,17.0,90,0.00,,,0.00,31.000000,,2013-07-04 14:43:00,
2013-07-04 07:53:00,50.0,47.0,-100.00,North,2,5.0,17.0,90,0.00,,,0.00,31.000000,,2013-07-04 14:53:00,
2013-07-04 08:02:00,50.0,47.0,-100.00,North,2,5.0,17.0,90,0.00,,,0.00,31.000000,,2013-07-04 15:02:00,
2013-07-04 08:10:00,51.0,46.0,-100.00,North,8,4.0,12.0,82,0.00,,,0.00,142.000000,,2013-07-04 15:10:00,
2013-07-04 08:43:00,51.0,46.0,-100.00,North,8,4.0,12.0,82,0.00,,,0.00,142.000000,,2013-07-04 15:43:00,
2013-07-04 08:52:00,51.0,46.0,-100.00,North,8,4.0,12.0,82,0.00,,,0.00,142.000000,,2013-07-04 15:52:00,
2013-07-04 09:02:00,51.0,46.0,-100.00,North,8,4.0,12.0,82,0.00,,,0.00,142.000000,,2013-07-04 16:02:00,
2013-07-04 09:10:00,56.0,46.0,-100.00,NNW,346,3.0,10.0,70,0.00,,,0.00,375.000000,,2013-07-04 16:10:00,
2013-07-04 09:33:00,56.0,46.0,-100.00,NNW,346,3.0,10.0,70,0.00,,,0.00,375.000000,,2013-07-04 16:33:00,
2013-07-04 09:43:00,56.0,46.0,-100.00,NNW,346,3.0,10.0,70,0.00,,,0.00,375.000000,,2013-07-04 16:43:00,
2013-07-04 09:52:00,56.0,46.0,-100.00,NNW,346,3.0,10.0,70,0.00,,,0.00,375.000000,,2013-07-04 16:52:00,
2013-07-04 10:01:00,56.0,46.0,-100.00,NNW,346,3.0,10.0,70,0.00,,,0.00,375.000000,,2013-07-04 17:01:00,
2013-07-04 10:10:00,61.0,48.0,-100.00,North,2,3.0,10.0,62,0.00,,,0.00,754.000000,,2013-07-04 17:10:00,
2013-07-04 10:34:00,61.0,48.0,-100.00,North,2,3.0,10.0,62,0.00,,,0.00,754.000000,,2013-07-04 17:34:00,
2013-07-04 10:43:00,61.0,48.0,-100.00,North,2,3.0,10.0,62,0.00,,,0.00,754.000000,,2013-07-04 17:43:00,
2013-07-04 10:53:00,61.0,48.0,-100.00,North,2,3.0,10.0,62,0.00,,,0.00,754.000000,,2013-07-04 17:53:00,
2013-07-04 11:01:00,61.0,48.0,-100.00,North,2,3.0,10.0,62,0.00,,,0.00,754.000000,,2013-07-04 18:01:00,
2013-07-04 11:10:00,63.0,50.0,-100.00,North,6,5.0,10.0,62,0.00,,,0.00,926.000000,,2013-07-04 18:10:00,
2013-07-04 11:43:00,63.0,50.0,-100.00,North,6,5.0,10.0,62,0.00,,,0.00,926.000000,,2013-07-04 18:43:00,
2013-07-04 11:52:00,63.0,50.0,-100.00,North,6,5.0,10.0,62,0.00,,,0.00,926.000000,,2013-07-04 18:52:00,
2013-07-04 12:01:00,63.0,50.0,-100.00,North,6,5.0,10.0,62,0.00,,,0.00,926.000000,,2013-07-04 19:01:00,
2013-07-04 12:10:00,62.0,51.0,-100.00,NNW,346,2.0,9.0,67,0.00,,,0.00,909.000000,,2013-07-04 19:10:00,
2013-07-04 12:43:00,62.0,51.0,-100.00,NNW,346,2.0,9.0,67,0.00,,,0.00,909.000000,,2013-07-04 19:43:00,
2013-07-04 12:53:00,62.0,51.0,-100.00,NNW,346,2.0,9.0,67,0.00,,,0.00,909.000000,,2013-07-04 19:53:00,
2013-07-04 13:01:00,62.0,51.0,-100.00,NNW,346,2.0,9.0,67,0.00,,,0.00,909.000000,,2013-07-04 20:01:00,
2013-07-04 13:10:00,65.0,51.0,-100.00,NW,314,2.0,11.0,60,0.00,,,0.00,803.000000,,2013-07-04 20:10:00,
2013-07-04 13:42:00,65.0,51.0,-100.00,NW,314,2.0,11.0,60,0.00,,,0.00,803.000000,,2013-07-04 20:42:00,
2013-07-04 13:53:00,65.0,51.0,-100.00,NW,314,2.0,11.0,60,0.00,,,0.00,803.000000,,2013-07-04 20:53:00,
2013-07-04 14:01:00,65.0,51.0,-100.00,NW,314,2.0,11.0,60,0.00,,,0.00,803.000000,,2013-07-04 21:01:00,
2013-07-04 14:10:00,63.0,49.0,-100.00,ESE,105,3.0,15.0,61,0.00,,,0.00,738.000000,,2013-07-04 21:10:00,
2013-07-04 14:43:00,63.0,49.0,-100.00,ESE,105,3.0,15.0,61,0.00,,,0.00,738.000000,,2013-07-04 21:43:00,
2013-07-04 14:53:00,63.0,49.0,-100.00,ESE,105,3.0,15.0,61,0.00,,,0.00,738.000000,,2013-07-04 21:53:00,
2013-07-04 15:01:00,63.0,49.0,-100.00,ESE,105,3.0,15.0,61,0.00,,,0.00,738.000000,,2013-07-04 22:01:00,
2013-07-04 15:10:00,67.0,54.0,-100.00,South,187,3.0,11.0,62,0.00,,,0.00,700.000000,,2013-07-04 22:10:00,
2013-07-04 15:43:00,67.0,54.0,-100.00,South,187,3.0,11.0,62,0.00,,,0.00,700.000000,,2013-07-04 22:43:00,
2013-07-04 15:52:00,67.0,54.0,-100.00,South,187,3.0,11.0,62,0.00,,,0.00,700.000000,,2013-07-04 22:52:00,
2013-07-04 16:01:00,67.0,54.0,-100.00,South,187,3.0,11.0,62,0.00,,,0.00,700.000000,,2013-07-04 23:01:00,
2013-07-04 16:10:00,62.0,48.0,-100.00,North,353,5.0,13.0,61,0.00,,,0.00,778.000000,,2013-07-04 23:10:00,
2013-07-04 16:33:00,62.0,48.0,-100.00,North,353,5.0,13.0,61,0.00,,,0.00,778.000000,,2013-07-04 23:33:00,
2013-07-04 16:43:00,62.0,48.0,-100.00,North,353,5.0,13.0,61,0.00,,,0.00,778.000000,,2013-07-04 23:43:00,
2013-07-04 16:52:00,62.0,48.0,-100.00,North,353,5.0,13.0,61,0.00,,,0.00,778.000000,,2013-07-04 23:52:00,
2013-07-04 17:01:00,62.0,48.0,-100.00,North,353,5.0,13.0,61,0.00,,,0.00,778.000000,,2013-07-05 00:01:00,
2013-07-04 18:10:00,60.0,48.0,-100.00,North,4,4.0,12.0,65,-99.99,,,0.00,478.000000,,2013-07-05 01:10:00,
2013-07-04 18:32:00,60.0,48.0,-100.00,North,4,4.0,12.0,65,-99.99,,,0.00,478.000000,,2013-07-05 01:32:00,
2013-07-04 18:42:00,60.0,48.0,-100.00,North,4,4.0,12.0,65,-99.99,,,0.00,478.000000,,2013-07-05 01:42:00,
2013-07-04 18:52:00,60.0,48.0,-100.00,North,4,4.0,12.0,65,-99.99,,,0.00,478.000000,,2013-07-05 01:52:00,
2013-07-04 19:02:00,60.0,48.0,-100.00,North,4,4.0,12.0,65,-99.99,,,0.00,478.000000,,2013-07-05 02:02:00,
2013-07-04 19:10:00,54.0,47.0,-100.00,WSW,243,4.0,15.0,77,0.00,,,0.00,210.000000,,2013-07-05 02:10:00,
2013-07-04 19:32:00,54.0,47.0,-100.00,WSW,243,4.0,15.0,77,0.00,,,0.00,210.000000,,2013-07-05 02:32:00,
2013-07-04 19:42:00,54.0,47.0,-100.00,WSW,243,4.0,15.0,77,0.00,,,0.00,210.000000,,2013-07-05 02:42:00,
2013-07-04 19:52:00,54.0,47.0,-100.00,WSW,243,4.0,15.0,77,0.00,,,0.00,210.000000,,2013-07-05 02:52:00,
2013-07-04 20:02:00,54.0,47.0,-100.00,WSW,243,4.0,15.0,77,0.00,,,0.00,210.000000,,2013-07-05 03:02:00,
2013-07-04 20:10:00,52.0,47.0,-100.00,North,0,3.0,13.0,83,0.00,,,0.00,96.000000,,2013-07-05 03:10:00,
2013-07-04 20:33:00,52.0,47.0,-100.00,North,0,3.0,13.0,83,0.00,,,0.00,96.000000,,2013-07-05 03:33:00,
2013-07-04 20:42:00,52.0,47.0,-100.00,North,0,3.0,13.0,83,0.00,,,0.00,96.000000,,2013-07-05 03:42:00,
2013-07-04 20:52:00,52.0,47.0,-100.00,North,0,3.0,13.0,83,0.00,,,0.00,96.000000,,2013-07-05 03:52:00,
2013-07-04 21:01:00,52.0,47.0,-100.00,North,0,3.0,13.0,83,0.00,,,0.00,96.000000,,2013-07-05 04:01:00,
2013-07-04 21:10:00,49.0,46.0,-100.00,North,8,4.0,19.0,90,0.00,,,0.00,41.000000,,2013-07-05 04:10:00,
2013-07-04 21:33:00,49.0,46.0,-100.00,North,8,4.0,19.0,90,0.00,,,0.00,41.000000,,2013-07-05 04:33:00,
2013-07-04 21:43:00,49.0,46.0,-100.00,North,8,4.0,19.0,90,0.00,,,0.00,41.000000,,2013-07-05 04:43:00,
2013-07-04 21:53:00,49.0,46.0,-100.00,North,8,4.0,19.0,90,0.00,,,0.00,41.000000,,2013-07-05 04:53:00,
2013-07-04 22:01:00,49.0,46.0,-100.00,North,8,4.0,19.0,90,0.00,,,0.00,41.000000,,2013-07-05 05:01:00,
2013-07-04 22:10:00,50.0,48.0,-100.00,NNE,15,6.0,19.0,93,0.00,,,0.00,1.000000,,2013-07-05 05:10:00,
2013-07-04 22:43:00,50.0,48.0,-100.00,NNE,15,6.0,19.0,93,0.00,,,0.00,1.000000,,2013-07-05 05:43:00,
2013-07-04 22:52:00,50.0,48.0,-100.00,NNE,15,6.0,19.0,93,0.00,,,0.00,1.000000,,2013-07-05 05:52:00,
2013-07-04 23:02:00,50.0,48.0,-100.00,NNE,15,6.0,19.0,93,0.00,,,0.00,1.000000,,2013-07-05 06:02:00,
2013-07-04 23:10:00,48.0,47.0,-100.00,North,5,5.0,17.0,97,0.00,,,0.00,0.000000,,2013-07-05 06:10:00,
2013-07-04 23:44:00,48.0,47.0,-100.00,North,5,5.0,17.0,97,0.00,,,0.00,0.000000,,2013-07-05 06:44:00,
2013-07-04 23:53:00,48.0,47.0,-100.00,North,5,5.0,17.0,97,0.00,,,0.00,0.000000,,2013-07-05 06:53:00,